ES'HAIL 2 (43700 NORAD) Tracking and Keplerian Element Data

This shows tracking and keplerian element data for the satellite.

Feedback or suggestion? Click here.




ElementValue
Catalog43700
NameES'HAIL 2
Epoch Orbit238
Epoch Day202.91341876
Epoch Year2019
RAAN71.2445
Inclination0.023
Eccentricity0.000156
Argument of Perigee70.7198
Mean Anonmoly152.0429
Mean Motion1.00269883
Decay Rate1.41E-06
L11 43700U 18090A 19202.91341876 .00000141 00000-0 00000-0 0 9991
L22 43700 0.0230 71.2445 0001560 70.7198 152.0429 1.00269883 2381

Live tracking and technical data element details for ES'HAIL 2 (NORAD 43700). ES'HAIL 2 can be tracked NOW for your location showing map with azimuth and elevation plus other details from your city location.

Track the satellite on the map from your city or location and see movement details for azimuth, elevation, latitude, longitude, range, height, and movement on the map or in text.







IsCatalogInMostPopularTable: catalog: 43700, numindb: 4197
Update: records affected: 1



GetName: 43700 ES'HAIL 2

Hit Count: updated at: Mon, 22 Jul 2019 12:53:01 GMT